Tracking 20092 objects as of 13-Dec-2019
HD Live streaming from Space Station
objects crossing your sky now

COSMOS 1823 DEB

Track COSMOS 1823 DEB now!
10-day predictions


NORAD ID: 18800
Int'l Code: 1987-020AL
Perigee: 1,479.0 km
Apogee: 1,558.6 km
Inclination: 73.6 °
Period: 116.2 minutes
Semi major axis: 7889 km
RCS: 0.043 m2 (small)
Launch date: February 20, 1987
Source: Commonwealth of Independent States (former USSR) (CIS)
Launch site: PLESETSK MISSILE AND SPACE COMPLEX (PKMTR)

Note: This is SATELLITE DEBRIS
aabbcc
Your satellite tracking list
Your tracking list is empty




NASA's NSSDC Master Catalog

Two Line Element Set (TLE):
1 18800U 87020AL  19345.57872866  .00000032  00000-0  37030-3 0  9996
2 18800  73.5947  66.8074 0050447 158.8626 265.0768 12.38816435446189
Source of the keplerian elements: AFSPC